XML Sitemap

This is a XML Sitemap which is supposed to be processed by search engines which follow the XML Sitemap standard like Ask.com, Bing, Google and Yahoo.
It was generated using the Blogging-Software WordPress and the Google Sitemap Generator Plugin by Arne Brachhold.
You can find more information about XML sitemaps on sitemaps.org and Google's list of sitemap programs.

URLPriorityChange frequencyLast modified (GMT)
http://letsdiscgolf.com/2018/08/31/227148/mt-zion-dgc-in-ironwood-mi-7/20%Monthly2018-08-31 23:46
http://letsdiscgolf.com/2018/08/31/227108/8312018-george-anderson-dgc-in-lake-village-wy-course-info-updated/20%Monthly2018-08-31 21:36
http://letsdiscgolf.com/2018/08/31/227106/8312018-newaygo-state-park-in-newaygo-mi-course-info-updated/20%Monthly2018-08-31 20:38
http://letsdiscgolf.com/2018/08/31/227101/creve-coeur-lake-park-in-st-louis-maryland-heights-mo-15/20%Monthly2018-08-31 19:50
http://letsdiscgolf.com/2018/08/31/227103/spassland-dgc-in-germantown-wi-7/20%Monthly2018-08-31 19:39
http://letsdiscgolf.com/2018/08/31/227098/dretzka-park-in-milwaukee-wi-13/20%Monthly2018-08-31 18:38
http://letsdiscgolf.com/2018/08/31/227091/blendon-woods-metro-park-in-columbus-oh-10/20%Monthly2018-08-31 17:08
http://letsdiscgolf.com/2018/08/31/227093/tendick-nature-park-in-saukville-wi-7/20%Monthly2018-08-31 16:05
http://letsdiscgolf.com/2018/08/31/227095/east-clayton-park-in-clayton-nc-5/20%Monthly2018-08-31 15:55
http://letsdiscgolf.com/2018/08/31/227084/the-nazz-in-orange-tx-9/20%Monthly2018-08-31 15:15
http://letsdiscgolf.com/2018/08/31/227086/walnut-hollow-long-in-cary-il/20%Monthly2018-08-31 15:00
http://letsdiscgolf.com/2018/08/31/227079/st-joseph-dgc-in-st-joseph-tn-8/20%Monthly2018-08-31 12:51
http://letsdiscgolf.com/2018/08/31/227076/8312018-stjrdal-disc-golf-park-in-stjrdal-norway-course-info-updated/20%Monthly2018-08-31 11:03
http://letsdiscgolf.com/2018/08/31/227073/bellevue-state-park-in-wilmington-de-8/20%Monthly2018-08-31 06:52
http://letsdiscgolf.com/2018/08/31/227067/lake-county-school-dgc-in-hartland-wi/20%Monthly2018-08-31 04:34
http://letsdiscgolf.com/2018/08/31/227071/8302018-dream-big-in-tigerton-wi-hole-info-updated/20%Monthly2019-06-30 01:48
http://letsdiscgolf.com/2018/08/31/227063/8302018-lake-county-school-dgc-in-hartland-wi-course-info-updated/20%Monthly2018-08-31 04:42
http://letsdiscgolf.com/2018/08/31/227061/black-bear-park-in-hoffman-estates-il-6/20%Monthly2018-08-31 03:06
http://letsdiscgolf.com/2018/08/30/227012/dreamtime-ranch-in-hartsel-co-3/20%Monthly2018-08-30 23:40
http://letsdiscgolf.com/2018/08/30/227004/pa-davis-dgc-in-lafayette-la-3/20%Monthly2018-08-30 21:55
http://letsdiscgolf.com/2018/08/30/227006/stoney-creek-dgc-in-fredonia-wi-8/20%Monthly2018-08-30 20:41
http://letsdiscgolf.com/2018/08/30/227002/princeville-mauka-dgc-in-princeville-hi/20%Monthly2018-08-30 20:22
http://letsdiscgolf.com/2018/08/30/226999/memorial-park-in-cascade-wi-2/20%Monthly2018-08-30 18:00
http://letsdiscgolf.com/2018/08/30/226994/8302018-walnut-hollow-long-course-in-cary-il-hole-info-updated/20%Monthly2018-12-27 18:45
http://letsdiscgolf.com/2018/08/30/226990/sheboygan-lions-dgc-in-sheboygan-wi-2/20%Monthly2018-08-30 17:43
http://letsdiscgolf.com/2018/08/30/226997/8302018-vietnam-veterans-park-in-concord-nc-course-info-updated/20%Monthly2018-08-30 17:16
http://letsdiscgolf.com/2018/08/30/226983/the-players-course-lake-olmstead-in-augusta-ga-3/20%Monthly2018-08-30 16:54
http://letsdiscgolf.com/2018/08/30/226992/jaycee-park-quarry-in-sheboygan-wi-3/20%Monthly2018-08-30 16:24
http://letsdiscgolf.com/2018/08/30/226987/8302018-chetek-bulldog-dgc-in-chetek-wi-course-info-updated/20%Monthly2018-08-30 16:19
http://letsdiscgolf.com/2018/08/30/226979/campbell-university-in-buies-creek-nc-8/20%Monthly2018-08-30 15:33
http://letsdiscgolf.com/2018/08/30/226981/vollrath-park-in-sheboygan-wi-7/20%Monthly2018-08-30 15:06
http://letsdiscgolf.com/2018/08/30/226939/bailey-dgc-in-bailey-co-36/20%Monthly2018-08-30 14:25
http://letsdiscgolf.com/2018/08/30/226935/zobel-park-in-green-lake-wi-19/20%Monthly2018-08-30 12:58
http://letsdiscgolf.com/2018/08/30/226928/8302018-central-park-in-oak-brook-il-photo-info-updated/20%Monthly2018-08-30 05:06
http://letsdiscgolf.com/2018/08/30/226924/8292018-birch-point-park-dgc-in-thunder-bay-on-new-photos-uploaded/20%Monthly2019-06-02 06:05
http://letsdiscgolf.com/2018/08/29/226920/hyzer-pines-at-s-o-a-r-in-sisters-or-10/20%Monthly2018-08-29 23:07
http://letsdiscgolf.com/2018/08/29/226916/8292018-kelly-oaks-disc-golf-course-in-peosta-ia-hole-info-updated/20%Monthly2018-08-29 20:25
http://letsdiscgolf.com/2018/08/29/226933/how-to-follow-pro-worlds/20%Monthly2018-08-29 20:02
http://letsdiscgolf.com/2018/08/29/226907/silver-creek-park-in-manitowoc-wi-16/20%Monthly2018-08-29 19:30
http://letsdiscgolf.com/2018/08/29/226909/cape-may-county-park-in-cape-may-court-house-nj/20%Monthly2018-08-29 19:03
http://letsdiscgolf.com/2018/08/29/227151/directors-poll-pre-pro-worlds/20%Monthly2018-08-29 16:44
http://letsdiscgolf.com/2018/08/29/226861/rollin-ridge-in-reedsville-wi-92/20%Monthly2018-08-29 16:38
http://letsdiscgolf.com/2018/08/29/226864/the-players-dgc-in-galena-oh-15/20%Monthly2018-08-29 16:02
http://letsdiscgolf.com/2018/08/29/226858/8292018-ung-oakwood-disc-golf-course-in-gainesville-ga-new-file-uploaded/20%Monthly2019-05-05 19:38
http://letsdiscgolf.com/2018/08/29/226856/horn-park-in-brillion-wi-3/20%Monthly2018-08-29 15:35
http://letsdiscgolf.com/2018/08/29/226905/pdga-radio-episode-29-dave-feldberg-mvp-open-disc-golf-at-burning-man/20%Monthly2018-08-29 15:07
http://letsdiscgolf.com/2018/08/29/226854/firemans-park-upper-in-slinger-wi-8/20%Monthly2018-08-29 13:21
http://letsdiscgolf.com/2018/08/29/226852/8292018-hickory-winds-dgc-in-carbondale-il-course-info-updated/20%Monthly2019-07-28 04:22
http://letsdiscgolf.com/2018/08/29/226846/8292018-scott-city-community-park-in-scott-city-mo-course-info-updated/20%Monthly2018-08-29 13:18
http://letsdiscgolf.com/2018/08/29/226848/8292018-cape-may-county-park-in-cape-may-court-house-nj-new-news-item-added/20%Monthly2019-10-06 01:36
http://letsdiscgolf.com/2018/08/29/226844/8292018-koala-park-in-san-remo-australia-new-photos-uploaded/20%Monthly2018-08-29 08:21
http://letsdiscgolf.com/2018/08/29/226842/jackson-park-18-in-atchison-ks-13/20%Monthly2018-08-29 04:56
http://letsdiscgolf.com/2018/08/29/226837/8282018-bald-mountain-in-orion-charter-township-mi-course-info-updated/20%Monthly2019-09-30 03:38
http://letsdiscgolf.com/2018/08/28/226833/ceraland-lakeside-in-columbus-in-4/20%Monthly2018-08-28 23:26
http://letsdiscgolf.com/2018/08/28/226830/8282018-zoo-dgc-in-cape-may-courthouse-nj-course-info-updated/20%Monthly2018-08-28 22:58
http://letsdiscgolf.com/2018/08/28/226821/fort-lewis-college-in-durango-co-5/20%Monthly2018-08-28 21:27
http://letsdiscgolf.com/2018/08/28/226823/westcreek-dgc-in-parker-co-14/20%Monthly2018-08-28 20:57
http://letsdiscgolf.com/2018/08/28/226825/sontag-dgc-in-rocky-mount-va-7/20%Monthly2018-08-28 20:32
http://letsdiscgolf.com/2018/08/28/226827/tjader-acres-dgc-in-siren-wi-9/20%Monthly2018-08-28 20:01
http://letsdiscgolf.com/2018/08/28/226818/8282018-black-mountain-ymca-in-black-mountain-nc-new-file-uploaded/20%Monthly2019-09-26 03:03
http://letsdiscgolf.com/2018/08/28/226810/lake-corriher-dgc-in-china-grove-nc/20%Monthly2018-08-28 18:25
http://letsdiscgolf.com/2018/08/28/226812/catawba-college-in-salisbury-nc-5/20%Monthly2018-08-28 17:58
http://letsdiscgolf.com/2018/08/28/226814/plamann-meadowview-9-in-appleton-wi-6/20%Monthly2018-08-28 17:15
http://letsdiscgolf.com/2018/08/28/226764/plamann-apple-creek-18-in-appleton-wi-12/20%Monthly2018-08-28 16:22
http://letsdiscgolf.com/2018/08/28/226774/dga-tempest-distance-driver-announced/20%Monthly2018-08-28 16:07
http://letsdiscgolf.com/2018/08/28/226758/green-valley-ranch-dgc-in-denver-co-10/20%Monthly2018-08-28 15:20
http://letsdiscgolf.com/2018/08/28/226760/zobel-park-in-green-lake-wi-18/20%Monthly2018-08-28 15:10
http://letsdiscgolf.com/2018/08/28/226762/8282018-green-valley-ranch-dgc-in-denver-co-course-info-updated/20%Monthly2018-09-12 20:32
http://letsdiscgolf.com/2018/08/28/226756/ruddick-park-in-colorado-city-tx-3/20%Monthly2018-08-28 13:55
http://letsdiscgolf.com/2018/08/28/226753/the-links-at-wheeler-park-in-geneva-il-12/20%Monthly2018-08-28 04:05
http://letsdiscgolf.com/2018/08/28/226742/8272018-madmans-dgc-in-owen-wi-course-info-updated/20%Monthly2018-08-28 03:33
http://letsdiscgolf.com/2018/08/28/226744/8272018-loyal-west-side-park-in-loyal-wi-course-info-updated/20%Monthly2018-08-28 03:31
http://letsdiscgolf.com/2018/08/28/226748/8272018-narrows-creek-dgc-in-loganville-wi-course-info-updated/20%Monthly2019-04-02 22:20
http://letsdiscgolf.com/2018/08/28/226735/highland-springs-reservoir-in-lakeport-ca-8/20%Monthly2018-08-28 03:06
http://letsdiscgolf.com/2018/08/28/226750/8272018-shorewood-park-in-shorewood-il-hole-info-updated/20%Monthly2019-10-01 19:23
http://letsdiscgolf.com/2018/08/28/226737/fowler-dgc-in-fowler-ks/20%Monthly2018-08-28 02:56
http://letsdiscgolf.com/2018/08/28/226693/scioto-grove-dgc-in-grove-city-oh-7/20%Monthly2018-08-28 01:05
http://letsdiscgolf.com/2018/08/27/226687/primland-in-meadows-of-dan-va-2/20%Monthly2018-08-27 23:17
http://letsdiscgolf.com/2018/08/27/226689/fiesta-lakes-in-mesa-az-12/20%Monthly2018-08-27 23:11
http://letsdiscgolf.com/2018/08/27/226691/hart-hydro-dgc-in-hart-mi-2/20%Monthly2018-08-27 23:09
http://letsdiscgolf.com/2018/08/27/226681/fancher-davidge-park-dgc-in-middletown-ny-2/20%Monthly2018-08-27 22:29
http://letsdiscgolf.com/2018/08/27/226683/frost-valley-dgc-in-claryville-ny-10/20%Monthly2018-08-27 22:16
http://letsdiscgolf.com/2018/08/27/226685/walhalla-woods-in-walhalla-mi-5/20%Monthly2018-08-27 21:35
http://letsdiscgolf.com/2018/08/27/226675/defiance-reservoir-in-defiance-oh-4/20%Monthly2018-08-27 19:43
http://letsdiscgolf.com/2018/08/27/226677/montrose-dgc-in-montrose-mn-4/20%Monthly2018-08-27 19:26
http://letsdiscgolf.com/2018/08/27/226670/mount-airy-high-school-in-mount-airy-nc/20%Monthly2018-08-27 18:18
http://letsdiscgolf.com/2018/08/27/226672/pattee-canyon-in-missoula-mt-4/20%Monthly2018-08-27 18:07
http://letsdiscgolf.com/2018/08/27/226629/huck-it-disc-golf-in-kinkora-pe/20%Monthly2018-08-27 14:05
http://letsdiscgolf.com/2018/08/27/226627/black-mountain-ymca-in-black-mountain-nc-4/20%Monthly2018-08-27 11:32
http://letsdiscgolf.com/2018/08/27/226623/conrad-comes-back-hokom-cruises-in-mvp-open-victories/20%Monthly2018-08-27 03:23
http://letsdiscgolf.com/2018/08/27/226606/loon-peak-disc-golf-in-lincoln-nh/20%Monthly2018-08-27 02:26
http://letsdiscgolf.com/2018/08/27/226608/nevada-baptist-church-in-nevada-ia/20%Monthly2018-08-27 02:18
http://letsdiscgolf.com/2018/08/27/226611/pine-nuts-in-gardnerville-nv-3/20%Monthly2018-08-27 02:13
http://letsdiscgolf.com/2018/08/27/226614/turtle-rock-park-in-markleeville-ca-11/20%Monthly2018-08-27 02:00
http://letsdiscgolf.com/2018/08/27/226601/oil-city-dgc-in-oil-city-pa-5/20%Monthly2018-08-27 01:15
http://letsdiscgolf.com/2018/08/27/226603/tionesta-lake-dgc-in-tionesta-pa/20%Monthly2018-08-27 01:06
http://letsdiscgolf.com/2018/08/26/226593/hcc-dgc-in-holyoke-ma-10/20%Monthly2018-08-26 19:31
http://letsdiscgolf.com/2018/08/26/226589/dreamaker-in-southampton-on/20%Monthly2018-08-26 18:25
http://letsdiscgolf.com/2018/08/26/226544/arboretum-spiker-park-green-in-canton-oh-2/20%Monthly2018-08-26 15:00
http://letsdiscgolf.com/2018/08/26/226534/the-blockhouse-sunnyside-in-spotsylvania-va-9/20%Monthly2018-08-26 06:11
http://letsdiscgolf.com/2018/08/26/226536/leaning-rock-dgc-in-pine-bluffs-wy-5/20%Monthly2018-08-26 05:31
http://letsdiscgolf.com/2018/08/26/226531/8262018-crystal-springs-dgc-in-medina-nd-hole-info-updated/20%Monthly2018-08-26 05:18
http://letsdiscgolf.com/2018/08/26/226528/the-bridges-dgc-in-mooresville-nc-11/20%Monthly2018-08-26 04:39
http://letsdiscgolf.com/2018/08/26/226539/aces-wild/20%Monthly2018-08-26 03:21
http://letsdiscgolf.com/2018/08/26/226519/victory-disc-golf-in-goodrich-mi/20%Monthly2018-08-26 02:56
http://letsdiscgolf.com/2018/08/26/226521/ricks-revenge-in-bear-valley-ca-3/20%Monthly2018-08-26 02:56
http://letsdiscgolf.com/2018/08/26/226542/hokom-gains-separation-on-mvp-open-moving-day/20%Monthly2018-08-26 02:46
http://letsdiscgolf.com/2018/08/25/226505/cb-eller-elementary-school-in-elkin-nc-5/20%Monthly2018-08-25 22:54
http://letsdiscgolf.com/2018/08/25/226511/8252018-fowler-dgc-in-fowler-ks-hole-info-updated/20%Monthly2019-05-14 17:11
http://letsdiscgolf.com/2018/08/25/226507/bailey-dgc-in-bailey-co-35/20%Monthly2018-08-25 22:43
http://letsdiscgolf.com/2018/08/25/226509/renville-county-west-dgc-in-renville-mn/20%Monthly2018-08-25 22:13
http://letsdiscgolf.com/2018/08/25/226502/8252018-meade-dgc-in-meade-ks-course-info-updated/20%Monthly2019-05-15 17:40
http://letsdiscgolf.com/2018/08/25/226495/cross-creek-dgc-in-gypsum-co-20/20%Monthly2018-08-25 18:25
http://letsdiscgolf.com/2018/08/25/226497/redwood-park-in-hudson-nc-3/20%Monthly2018-08-25 17:47
http://letsdiscgolf.com/2018/08/25/226499/sawmills-veterans-park-in-sawmills-nc-15/20%Monthly2018-08-25 17:42
http://letsdiscgolf.com/2018/08/25/226491/bill-frederick-park-turkey-lake-in-orlando-fl-18/20%Monthly2018-08-25 17:04
http://letsdiscgolf.com/2018/08/25/226493/tuscawilla-park-in-daytona-beach-fl-8/20%Monthly2018-08-25 16:07
http://letsdiscgolf.com/2018/08/25/226483/locastro-logs-season-best-showing-to-take-mvp-open-lead/20%Monthly2018-08-25 05:55
http://letsdiscgolf.com/2018/08/25/226486/hokom-pierce-meet-atop-mvp-open-leaderboard/20%Monthly2018-08-25 04:48
http://letsdiscgolf.com/2018/08/25/226478/8242018-knobley-mountaindgc-in-ridgeley-wv-course-info-updated/20%Monthly2019-09-26 18:05
http://letsdiscgolf.com/2018/08/25/232284/8242018-baraboo-lions-dgc-in-baraboo-wi-hole-info-updated-2/20%Monthly2018-08-25 02:54
http://letsdiscgolf.com/2018/08/25/226471/8242018-baraboo-lions-dgc-in-baraboo-wi-hole-info-updated/20%Monthly2018-10-12 06:19
http://letsdiscgolf.com/2018/08/25/226429/orange-crush-in-fairmont-wv-7/20%Monthly2018-08-25 00:17
http://letsdiscgolf.com/2018/08/24/226424/cypresswood-dgc-in-spring-tx-12/20%Monthly2018-08-24 22:42
http://letsdiscgolf.com/2018/08/24/226427/8242018-the-breakers-in-west-olive-mi-course-info-updated/20%Monthly2019-06-19 04:06
http://letsdiscgolf.com/2018/08/24/226413/the-scrapyard-in-matthews-nc-18/20%Monthly2018-08-24 21:06
http://letsdiscgolf.com/2018/08/24/226415/oakboro-district-park-in-oakboro-nc-10/20%Monthly2018-08-24 20:53
http://letsdiscgolf.com/2018/08/24/226417/city-lake-park-dgc-in-albemarle-nc-8/20%Monthly2018-08-24 20:42
http://letsdiscgolf.com/2018/08/24/226419/mcgregor-dgc-in-mcgregor-tx/20%Monthly2018-08-24 20:40
http://letsdiscgolf.com/2018/08/24/226407/8242018-silent-lake-dgc-in-deerfield-beach-fl-course-info-updated/20%Monthly2019-09-26 16:47
http://letsdiscgolf.com/2018/08/24/226421/fox-chase-in-albemarle-nc-12/20%Monthly2018-08-24 20:30
http://letsdiscgolf.com/2018/08/24/226411/8242018-sultan-park-in-walters-ok-course-info-updated/20%Monthly2019-10-03 04:54
http://letsdiscgolf.com/2018/08/24/226401/sam-benn-dgc-in-aberdeen-wa-3/20%Monthly2018-08-24 19:28
http://letsdiscgolf.com/2018/08/24/226403/austin-ridge-bible-church-in-austin-tx-16/20%Monthly2018-08-24 19:17
http://letsdiscgolf.com/2018/08/24/226405/north-branch-dgc-in-north-branch-mi/20%Monthly2018-08-24 18:55
http://letsdiscgolf.com/2018/08/24/226360/flip-city-disc-golf-park-in-shelby-mi-44/20%Monthly2018-08-24 18:04
http://letsdiscgolf.com/2018/08/24/226358/timber-dome-dgc-in-solon-ia/20%Monthly2018-08-24 16:34
http://letsdiscgolf.com/2018/08/24/226351/hunter-park-in-newberry-sc-3/20%Monthly2018-08-24 14:15
http://letsdiscgolf.com/2018/08/24/226353/mcdade-park-in-conroe-tx-7/20%Monthly2018-08-24 13:53
http://letsdiscgolf.com/2018/08/24/226343/ogemaw-hills-dgc-in-west-branch-mi-4/20%Monthly2018-08-24 12:26
http://letsdiscgolf.com/2018/08/24/226345/spindler-park-in-eastpointe-mi-3/20%Monthly2018-08-24 12:13
http://letsdiscgolf.com/2018/08/24/226347/moraine-state-park-in-portersville-pa-27/20%Monthly2018-08-24 12:03
http://letsdiscgolf.com/2018/08/24/226349/foundation-park-dg-complex-champ-18-in-centralia-il-16/20%Monthly2018-08-24 11:57
http://letsdiscgolf.com/2018/08/24/226340/8242018-shaver-park-in-cedar-rapids-ia-new-link-added/20%Monthly2018-08-24 08:30
http://letsdiscgolf.com/2018/08/24/226337/foxdale-park-in-addison-il-2/20%Monthly2018-08-24 05:53
http://letsdiscgolf.com/2018/08/24/226333/8232018-foxdale-park-in-addison-il-new-photos-uploaded/20%Monthly2018-10-27 03:32
http://letsdiscgolf.com/2018/08/24/226335/8232018-the-pines-dgc-in-st-charles-mi-hole-info-updated/20%Monthly2018-08-24 04:27
http://letsdiscgolf.com/2018/08/24/226329/8232018-lighthouse-christian-ministries-in-grand-haven-mi-course-info-updated/20%Monthly2018-08-24 01:11
http://letsdiscgolf.com/2018/08/23/226319/msu-dgc-in-minot-nd/20%Monthly2018-08-23 23:38
http://letsdiscgolf.com/2018/08/23/226321/reed-canal-park-dgc-in-south-daytona-fl-4/20%Monthly2018-08-23 23:12
http://letsdiscgolf.com/2018/08/23/226311/8232018-the-river-course-at-foxs-bend-in-victoria-tx-new-photos-uploaded/20%Monthly2018-12-17 20:41
http://letsdiscgolf.com/2018/08/23/226309/texas-wesleyan-university-in-fort-worth-tx-4/20%Monthly2018-08-23 21:54
http://letsdiscgolf.com/2018/08/23/226314/8232018-camp-zephyr-dgc-in-sandia-tx-new-photos-uploaded/20%Monthly2018-08-23 21:44
http://letsdiscgolf.com/2018/08/23/226316/8232018-dodson-dgc-in-bruce-wi-hole-info-updated/20%Monthly2018-09-12 17:14
http://letsdiscgolf.com/2018/08/23/226307/8232018-the-track-in-barrington-il-hole-info-updated/20%Monthly2018-08-23 21:07
http://letsdiscgolf.com/2018/08/23/226303/l-l-stub-stewart-sp-hares-canyon-in-buxton-or-2/20%Monthly2018-08-23 19:13
http://letsdiscgolf.com/2018/08/23/226301/pyramids-in-leicester-ma-15/20%Monthly2018-08-23 17:53
http://letsdiscgolf.com/2018/08/23/226257/stapleton-school-dgc-in-stapleton-al/20%Monthly2018-08-23 13:26
http://letsdiscgolf.com/2018/08/23/226259/sand-ridge-dgc-in-bridgman-mi-5/20%Monthly2018-08-23 13:20
http://letsdiscgolf.com/2018/08/23/226254/tyger-river-in-reidville-sc-26/20%Monthly2018-08-23 11:24
http://letsdiscgolf.com/2018/08/23/226251/quarry-park-in-leamington-spa-warwickshire-united-kingdom-8/20%Monthly2018-08-23 10:02
http://letsdiscgolf.com/2018/08/23/226249/8232018-almira-township-park-in-lake-ann-mi-course-info-updated/20%Monthly2018-10-07 04:15
http://letsdiscgolf.com/2018/08/23/226210/legacy-park-in-kennesaw-ga-8/20%Monthly2018-08-23 04:03
http://letsdiscgolf.com/2018/08/23/226208/8222018-optimist-dgc-in-dickinson-nd-course-info-updated/20%Monthly2018-08-23 03:00
http://letsdiscgolf.com/2018/08/23/226201/8222018-south-heart-dgc-in-south-heart-nd-course-info-updated/20%Monthly2018-08-23 03:01
http://letsdiscgolf.com/2018/08/23/226198/8222018-huck-it-disc-golf-in-kinkora-pe-course-info-updated/20%Monthly2018-09-05 01:48
http://letsdiscgolf.com/2018/08/22/226195/riverside-park-in-rushville-in-3/20%Monthly2018-08-22 23:33
http://letsdiscgolf.com/2018/08/22/226181/sugar-creek-park-dgc-in-new-palestine-in-2/20%Monthly2018-08-22 23:18
http://letsdiscgolf.com/2018/08/22/226183/raymond-park-dgc-in-indianapolis-in-2/20%Monthly2018-08-22 23:02
http://letsdiscgolf.com/2018/08/22/226185/riley-park-in-greenfield-in-2/20%Monthly2018-08-22 22:49
http://letsdiscgolf.com/2018/08/22/226187/falls-park-in-pendleton-in/20%Monthly2018-08-22 22:33
http://letsdiscgolf.com/2018/08/22/226189/baker-park-in-new-castle-in-3/20%Monthly2018-08-22 22:19
http://letsdiscgolf.com/2018/08/22/226191/prairie-creek-reservoir-dgc-in-selma-in-7/20%Monthly2018-08-22 22:07
http://letsdiscgolf.com/2018/08/22/226193/tom-mccutcheon-dgp-in-lewisville-tx-3/20%Monthly2018-08-22 22:06
http://letsdiscgolf.com/2018/08/22/226173/lakeshore-disc-golf-complex-in-spring-lake-mi-12/20%Monthly2018-08-22 20:58
http://letsdiscgolf.com/2018/08/22/226168/sunset-hills-dgc-in-pekin-il-7/20%Monthly2018-08-22 19:48
http://letsdiscgolf.com/2018/08/22/226171/8222018-black-mountain-in-black-mountain-nc-course-info-updated/20%Monthly2018-08-22 19:32
http://letsdiscgolf.com/2018/08/22/226165/8222018-southwest-texas-jr-college-in-uvalde-tx-new-photos-uploaded/20%Monthly2018-08-23 19:17
http://letsdiscgolf.com/2018/08/22/226151/edgerton-dgc-in-edgerton-mn/20%Monthly2018-08-22 17:48
http://letsdiscgolf.com/2018/08/22/226153/rivers-edge-dgc-in-granite-falls-mn/20%Monthly2018-08-22 17:44
http://letsdiscgolf.com/2018/08/22/226155/lakeview-dgc-in-cottonwood-mn-3/20%Monthly2018-08-22 17:39
http://letsdiscgolf.com/2018/08/22/226157/westview-dgc-in-pipestone-mn/20%Monthly2018-08-22 17:36
http://letsdiscgolf.com/2018/08/22/226159/v-a-barrie-park-in-st-thomas-on-3/20%Monthly2018-08-22 17:15
http://letsdiscgolf.com/2018/08/22/226161/rivers-edge-in-london-on-6/20%Monthly2018-08-22 17:02
http://letsdiscgolf.com/2018/08/22/226140/dreamtime-ranch-in-hartsel-co-2/20%Monthly2018-08-22 16:57
http://letsdiscgolf.com/2018/08/22/226146/8222018-lake-orient-recreation-area-in-orient-ia-new-photos-uploaded/20%Monthly2018-08-22 16:25
http://letsdiscgolf.com/2018/08/22/226099/linbrook-dgc-in-pittsburgh-pa-16/20%Monthly2018-08-22 14:50
http://letsdiscgolf.com/2018/08/22/226097/8222018-morgan-park-middle-school-in-duluth-mn-course-info-updated/20%Monthly2018-10-02 20:08
http://letsdiscgolf.com/2018/08/22/226095/telford-town-park-in-telford-united-kingdom-4/20%Monthly2018-08-22 11:24
http://letsdiscgolf.com/2018/08/22/226059/fairways-of-fairhope-in-fairhope-al-4/20%Monthly2018-08-22 06:07
http://letsdiscgolf.com/2018/08/22/226054/dorothy-j-schmidt-memorial-park-in-hampshire-il/20%Monthly2018-08-22 04:51
http://letsdiscgolf.com/2018/08/22/226047/ross-park-in-norton-shores-mi-3/20%Monthly2018-08-22 02:46
http://letsdiscgolf.com/2018/08/22/226052/8212018-albia-city-park-in-albia-ia-course-info-updated/20%Monthly2018-08-22 02:16
http://letsdiscgolf.com/2018/08/21/226024/wehrs-damcovered-bridges-in-orefield-pa-14/20%Monthly2018-08-21 23:20
http://letsdiscgolf.com/2018/08/21/226026/fullerton-garrity-dgc-in-corsicana-tx-7/20%Monthly2018-08-21 22:56
http://letsdiscgolf.com/2018/08/21/226028/willamette-park-in-corvallis-or-9/20%Monthly2018-08-21 22:32
http://letsdiscgolf.com/2018/08/21/226031/8212018-fauquier-county-southern-sports-complex-dgc-in-bealeton-va-new-file-uploaded/20%Monthly2018-09-16 18:39
http://letsdiscgolf.com/2018/08/21/226009/8212018-stella-park-in-stella-ne-new-photos-uploaded/20%Monthly2018-08-21 21:53
http://letsdiscgolf.com/2018/08/21/226057/pdga-radio-episode-28-simon-lizotte-masters-worlds-mvp-open/20%Monthly2018-08-21 21:47
http://letsdiscgolf.com/2018/08/21/226012/8212018-indian-cave-dgc-in-shubert-ne-new-photos-uploaded/20%Monthly2018-08-21 21:43
http://letsdiscgolf.com/2018/08/21/226015/8212018-willard-city-park-in-willard-oh-course-info-updated/20%Monthly2019-04-21 05:23
http://letsdiscgolf.com/2018/08/21/226022/the-canyons-in-lockport-il-54/20%Monthly2018-08-21 21:12
http://letsdiscgolf.com/2018/08/21/226020/8212018-central-college-dgc-in-pella-ia-hole-info-updated/20%Monthly2019-09-05 05:33
http://letsdiscgolf.com/2018/08/21/225976/8212018-lapping-memorial-park-in-clarksville-in-hole-info-updated/20%Monthly2019-09-01 19:48
http://letsdiscgolf.com/2018/08/21/225966/8212018-muldraugh-dgc-in-muldraugh-ky-new-tournament-added/20%Monthly2018-11-02 20:05
http://letsdiscgolf.com/2018/08/21/225964/8212018-radcliff-disc-golf-in-radcliff-ky-new-tournament-added/20%Monthly2018-08-21 17:57
http://letsdiscgolf.com/2018/08/21/225962/cedar-creek-central-in-fairmont-mn/20%Monthly2018-08-21 17:03
http://letsdiscgolf.com/2018/08/21/225968/8212018-princeville-mauka-disc-golf-course-in-princeville-hi-course-info-updated/20%Monthly2019-01-22 06:00
http://letsdiscgolf.com/2018/08/21/225960/frostys-rest-dgc-in-alexis-il-4/20%Monthly2018-08-21 16:34
http://letsdiscgolf.com/2018/08/21/225973/8212018-clarinda-lied-center-dgc-in-clarinda-ia-new-photos-uploaded/20%Monthly2018-08-21 16:02
http://letsdiscgolf.com/2018/08/21/225952/8212018-red-oak-sports-complex-in-red-oak-ia-hole-info-updated/20%Monthly2018-08-21 15:41
http://letsdiscgolf.com/2018/08/21/225954/8212018-villisca-dgc-in-villisca-ia-new-photos-uploaded/20%Monthly2018-08-21 15:35
http://letsdiscgolf.com/2018/08/21/225958/8212018-kelly-park-dgc-in-red-oak-ia-new-photos-uploaded/20%Monthly2018-08-21 15:08
http://letsdiscgolf.com/2018/08/21/225944/8212018-botna-bend-park-in-hancock-ia-new-photos-uploaded/20%Monthly2018-08-21 14:57
http://letsdiscgolf.com/2018/08/21/225946/8212018-avoca-dgc-in-avoca-ia-new-photos-uploaded/20%Monthly2018-08-21 14:48
http://letsdiscgolf.com/2018/08/21/225936/simpsonville-city-park-in-simpsonville-sc-3/20%Monthly2018-08-21 14:46
http://letsdiscgolf.com/2018/08/21/225948/8212018-harlan-pioneer-park-in-harlan-ia-new-file-uploaded/20%Monthly2018-08-21 14:39
http://letsdiscgolf.com/2018/08/21/225938/mt-airy-forest-in-cincinnati-oh-37/20%Monthly2018-08-21 14:04
http://letsdiscgolf.com/2018/08/21/225940/william-harbin-park-in-fairfield-oh-12/20%Monthly2018-08-21 13:46
http://letsdiscgolf.com/2018/08/21/225942/chains-edge-red-in-ogilvie-mn-6/20%Monthly2018-08-21 13:33
http://letsdiscgolf.com/2018/08/21/225931/8212018-waurika-disc-golf-course-in-waurika-ok-new-link-added/20%Monthly2019-04-08 04:58
http://letsdiscgolf.com/2018/08/21/225927/kress-creek-farms-in-west-chicago-il-7/20%Monthly2018-08-21 04:38
http://letsdiscgolf.com/2018/08/21/225929/the-canyons-in-lockport-il-53/20%Monthly2018-08-21 04:25
http://letsdiscgolf.com/2018/08/21/225924/miller-park-in-sanborn-ia-3/20%Monthly2018-08-21 03:42
http://letsdiscgolf.com/2018/08/21/225919/brent-hambrick-memorial-dgc-in-columbus-oh-19/20%Monthly2018-08-21 02:29
http://letsdiscgolf.com/2018/08/21/226103/stuck-in-the-mud-tonns-travels/20%Monthly2018-08-21 02:27
http://letsdiscgolf.com/2018/08/21/225921/fuller-park-dgc-in-barnwell-sc-3/20%Monthly2018-08-21 02:18
http://letsdiscgolf.com/2018/08/20/225916/dreamtime-ranch-in-hartsel-co/20%Monthly2018-08-20 23:30
http://letsdiscgolf.com/2018/08/20/225907/goose-landing-in-richfield-nc-13/20%Monthly2018-08-20 20:16
http://letsdiscgolf.com/2018/08/20/225909/mission-hills-in-north-hills-ca-11/20%Monthly2018-08-20 19:57
http://letsdiscgolf.com/2018/08/20/225911/osage-grove-dgc-in-goshen-oh-22/20%Monthly2018-08-20 19:35
http://letsdiscgolf.com/2018/08/20/225913/sherwood-hills-in-wellsville-ut/20%Monthly2018-08-20 19:02
http://letsdiscgolf.com/2018/08/20/225902/8202018-lindsay-municipal-dgc-in-lindsay-ok-hole-info-updated/20%Monthly2018-08-20 17:25
http://letsdiscgolf.com/2018/08/20/225900/brockway-park-in-rosemount-mn-5/20%Monthly2018-08-20 17:08
http://letsdiscgolf.com/2018/08/20/225897/8202018-victory-disc-golf-in-goodrich-mi-hole-info-updated/20%Monthly2018-09-05 22:13
http://letsdiscgolf.com/2018/08/20/225895/megiddo-dgc-in-morton-il-21/20%Monthly2018-08-20 16:21
http://letsdiscgolf.com/2018/08/20/225886/rainshadow-dgc-in-sequim-wa-7/20%Monthly2018-08-20 14:55
http://letsdiscgolf.com/2018/08/20/225888/riverbend-dgc-in-estacada-or-13/20%Monthly2018-08-20 14:44
http://letsdiscgolf.com/2018/08/20/225890/prickly-pines-in-elizabeth-co/20%Monthly2018-08-20 14:32
http://letsdiscgolf.com/2018/08/20/225892/century-park-dgc-in-greer-sc-11/20%Monthly2018-08-20 14:19
http://letsdiscgolf.com/2018/08/20/225883/patterson-lake-dgc-in-dickinson-nd-4/20%Monthly2018-08-20 06:19
http://letsdiscgolf.com/2018/08/20/226110/1400-courses-and-counting-tonns-travels/20%Monthly2018-08-20 05:56
http://letsdiscgolf.com/2018/08/20/225876/sunset-park-dgc-in-mandan-nd-7/20%Monthly2018-08-20 05:51
http://letsdiscgolf.com/2018/08/20/225878/riverside-park-in-washburn-nd-3/20%Monthly2018-08-20 05:21
http://letsdiscgolf.com/2018/08/20/225870/laurens-county-park-in-laurens-sc-2/20%Monthly2018-08-20 02:28
http://letsdiscgolf.com/2018/08/20/225865/8192018-laurens-county-park-in-laurens-sc-course-info-updated/20%Monthly2018-08-20 02:27
http://letsdiscgolf.com/2018/08/20/225868/8192018-hunter-park-in-newberry-sc-hole-info-updated/20%Monthly2018-10-19 03:48
http://letsdiscgolf.com/2018/08/20/225861/parque-de-la-raza-dgc-in-san-jose-ca-8/20%Monthly2018-08-20 01:01
http://letsdiscgolf.com/2018/08/20/225863/okoboji-gold-dgc-in-okoboji-ia-14/20%Monthly2018-08-20 00:48
http://letsdiscgolf.com/2018/08/19/225859/arakelian-park-dgc-in-livingston-ca-2/20%Monthly2018-08-19 23:52
http://letsdiscgolf.com/2018/08/19/225856/8192018-fuller-park-dgc-in-barnwell-sc-hole-info-updated/20%Monthly2018-08-19 23:43
http://letsdiscgolf.com/2018/08/19/225853/telford-town-park-in-telford-united-kingdom-3/20%Monthly2018-08-19 21:54
http://letsdiscgolf.com/2018/08/19/225841/lum-park-in-brainerd-mn-3/20%Monthly2018-08-19 19:37
http://letsdiscgolf.com/2018/08/19/225835/faircrest-park-in-canton-oh-3/20%Monthly2018-08-19 17:47
http://letsdiscgolf.com/2018/08/19/225829/8192018-lone-elk-lodge-in-east-glacier-park-mt-new-photos-uploaded/20%Monthly2018-08-19 17:28
http://letsdiscgolf.com/2018/08/19/225816/sugar-hollow-dgc-in-bristol-va-9/20%Monthly2018-08-19 14:49
http://letsdiscgolf.com/2018/08/19/225819/finals-at-water-works-crowns-five-new-masters-world-champions-in-kansas-city/20%Monthly2018-08-19 14:24
http://letsdiscgolf.com/2018/08/19/225847/european-champions-crowned-in-croatia/20%Monthly2018-08-19 13:08
http://letsdiscgolf.com/2018/08/19/226064/to-the-pain-tonns-travels/20%Monthly2018-08-19 05:05
http://letsdiscgolf.com/2018/08/19/225809/mercer-county-park-dgc-in-west-windsor-township-nj-7/20%Monthly2018-08-19 02:14
http://letsdiscgolf.com/2018/08/19/225811/heritage-park-dgc-in-andrews-nc-4/20%Monthly2018-08-19 02:09
http://letsdiscgolf.com/2018/08/19/225799/la-mirada-regional-park-back-18-in-la-mirada-ca-16/20%Monthly2018-08-19 01:14
http://letsdiscgolf.com/2018/08/19/225801/la-mirada-regional-park-front-18-in-la-mirada-ca-23/20%Monthly2018-08-19 00:57
http://letsdiscgolf.com/2018/08/19/225803/rolling-pines-dgc-in-wilkesboro-nc-34/20%Monthly2018-08-19 00:54
http://letsdiscgolf.com/2018/08/19/225805/elysian-park-buena-vista-hill-in-los-angeles-ca-2/20%Monthly2018-08-19 00:45
http://letsdiscgolf.com/2018/08/19/225807/whittier-narrows-park-in-south-el-monte-ca-5/20%Monthly2018-08-19 00:33
http://letsdiscgolf.com/2018/08/19/225796/8182018-forestry-park-in-bottineau-nd-hole-info-updated/20%Monthly2019-05-10 01:12
http://letsdiscgolf.com/2018/08/18/225794/elysian-park-chavez-ridge-in-los-angeles-ca-2/20%Monthly2018-08-18 23:41
http://letsdiscgolf.com/2018/08/18/225790/rabbit-flats-in-thousand-oaks-ca-7/20%Monthly2018-08-18 22:37
http://letsdiscgolf.com/2018/08/18/225792/lincoln-ave-park-west-in-mount-dora-fl-8/20%Monthly2018-08-18 21:31
http://letsdiscgolf.com/2018/08/18/225785/9th-avenue-dgc-in-mount-dora-fl-4/20%Monthly2018-08-18 20:56
http://letsdiscgolf.com/2018/08/18/225780/edisto-memorial-gardens-dgc-in-orangeburg-sc-6/20%Monthly2018-08-18 19:25
http://letsdiscgolf.com/2018/08/18/225775/whistlers-bend-in-roseburg-or-17/20%Monthly2018-08-18 18:21
http://letsdiscgolf.com/2018/08/18/225777/mccormick-park-in-st-helens-or-10/20%Monthly2018-08-18 18:13
http://letsdiscgolf.com/2018/08/18/225768/8182018-franz-ross-park-in-port-charlotte-fl-new-photos-uploaded/20%Monthly2019-02-20 01:47
http://letsdiscgolf.com/2018/08/18/225763/franz-ross-park-in-port-charlotte-fl/20%Monthly2018-08-18 17:04
http://letsdiscgolf.com/2018/08/18/225771/8182018-the-mammoth-in-springfield-mi-course-info-updated/20%Monthly2018-08-23 14:14
http://letsdiscgolf.com/2018/08/18/225765/quarry-park-in-duluth-mn/20%Monthly2018-08-18 16:38
http://letsdiscgolf.com/2018/08/18/225761/prince-solms-park-in-new-braunfels-tx-7/20%Monthly2018-08-18 15:27
http://letsdiscgolf.com/2018/08/18/225751/harmony-bends-dgc-in-columbia-mo-56/20%Monthly2018-08-18 06:49
http://letsdiscgolf.com/2018/08/18/225754/the-race-for-double-digits/20%Monthly2018-08-18 06:17
http://letsdiscgolf.com/2018/08/18/225746/clark-park-in-elk-grove-village-il-8/20%Monthly2018-08-18 03:49
http://letsdiscgolf.com/2018/08/18/225757/lizotte-blomroos-consolidate-leads-heading-into-edgc-finals/20%Monthly2018-08-18 03:21
http://letsdiscgolf.com/2018/08/18/225736/williamson-county-dgc-in-leander-tx-7/20%Monthly2018-08-18 01:59
http://letsdiscgolf.com/2018/08/18/225733/8172018-gustavus-disc-golf-course-in-gustavus-ak-course-info-updated/20%Monthly2018-08-18 01:44
http://letsdiscgolf.com/2018/08/18/225738/carrollton-park-dgc-in-bridgeton-st-louis-mo-19/20%Monthly2018-08-18 01:38
http://letsdiscgolf.com/2018/08/18/225740/johnson-state-college-dgc-in-johnson-vt-5/20%Monthly2018-08-18 00:03
http://letsdiscgolf.com/2018/08/17/225694/kenneth-hahn-dgc-in-los-angeles-ca/20%Monthly2018-08-17 22:26
http://letsdiscgolf.com/2018/08/17/225698/8172018-holts-summit-dgc-in-holts-summit-mo-new-tournament-added/20%Monthly2018-08-17 22:02
http://letsdiscgolf.com/2018/08/17/225685/ft-hamby-park-in-wilkesboro-nc-15/20%Monthly2018-08-17 18:23
http://letsdiscgolf.com/2018/08/17/225687/lichfield-beacon-park-in-lichfield-united-kingdom-3/20%Monthly2018-08-17 18:13
http://letsdiscgolf.com/2018/08/17/225691/telford-town-park-in-telford-united-kingdom-2/20%Monthly2018-08-17 17:53
http://letsdiscgolf.com/2018/08/17/225678/chains-edge-green-in-ogilvie-mn-3/20%Monthly2018-08-17 16:56
http://letsdiscgolf.com/2018/08/17/225689/chains-edge-green-in-ogilvie-mn-3-2/20%Monthly2018-08-17 16:56
http://letsdiscgolf.com/2018/08/17/225690/chains-edge-green-in-ogilvie-mn-3-3/20%Monthly2018-08-17 16:56
http://letsdiscgolf.com/2018/08/17/225680/rolling-pines-dgc-in-wilkesboro-nc-33/20%Monthly2018-08-17 16:41
http://letsdiscgolf.com/2018/08/17/225682/8172018-loon-peak-disc-golf-in-lincoln-nh-new-file-uploaded/20%Monthly2019-03-10 16:32
http://letsdiscgolf.com/2018/08/17/225675/good-throws-at-bad-rock/20%Monthly2018-08-17 14:26
http://letsdiscgolf.com/2018/08/17/225669/foothills-dgc-in-easley-sc-6/20%Monthly2018-08-17 12:07
http://letsdiscgolf.com/2018/08/17/225659/whistler-dgc-in-whistler-bc-3/20%Monthly2018-08-17 08:57
http://letsdiscgolf.com/2018/08/17/225662/alexander-park-in-lawrenceville-ga-12/20%Monthly2018-08-17 08:36
http://letsdiscgolf.com/2018/08/17/225656/bowers-park-in-tuscaloosa-al-11/20%Monthly2018-08-17 06:08
http://letsdiscgolf.com/2018/08/17/225653/cedar-creek-west-in-fairmont-mn-3/20%Monthly2018-08-17 05:34
http://letsdiscgolf.com/2018/08/17/225667/cream-of-the-crop-rises-at-european-championships/20%Monthly2018-08-17 04:43
http://letsdiscgolf.com/2018/08/17/226036/on-the-road-to-kansas-city-the-sequel-tonns-travels/20%Monthly2018-08-17 03:53
http://letsdiscgolf.com/2018/08/17/225641/trail-of-tears-park-in-hopkinsville-ky-4/20%Monthly2018-08-17 03:29
http://letsdiscgolf.com/2018/08/17/225645/8162018-west-brook-park-in-dewitt-ia-photo-info-updated/20%Monthly2018-08-17 03:05
http://letsdiscgolf.com/2018/08/17/225649/8162018-big-mack-in-lubbock-tx-new-file-uploaded/20%Monthly2018-08-26 17:12
http://letsdiscgolf.com/2018/08/17/225643/smugglers-notch-fox-run-in-jeffersonville-vt-15/20%Monthly2018-08-17 02:40
http://letsdiscgolf.com/2018/08/17/225608/elk-creek-dgc-in-appomattox-va-2/20%Monthly2018-08-17 00:59
http://letsdiscgolf.com/2018/08/16/225598/8162018-whitecap-in-upson-wi-hole-info-updated/20%Monthly2018-08-17 13:16
http://letsdiscgolf.com/2018/08/16/244254/megiddo-dgc-in-morton-il-20-2/20%Monthly2018-08-16 23:57
http://letsdiscgolf.com/2018/08/16/225604/megiddo-dgc-in-morton-il-20/20%Monthly2018-08-16 23:57
http://letsdiscgolf.com/2018/08/16/225606/northwood-park-in-morton-il-7/20%Monthly2018-08-16 23:51
http://letsdiscgolf.com/2018/08/16/225596/iron-wolf-dgc-in-spicewood-tx/20%Monthly2018-08-16 21:11
http://letsdiscgolf.com/2018/08/16/225581/south-fork-park-in-florence-ky-3/20%Monthly2018-08-16 20:10
http://letsdiscgolf.com/2018/08/16/225583/8162018-tigers-den-in-spirit-lake-id-hole-info-updated/20%Monthly2018-08-16 19:50
http://letsdiscgolf.com/2018/08/16/225578/lincoln-ridge-park-in-independence-ky-29/20%Monthly2018-08-16 16:24
http://letsdiscgolf.com/2018/08/16/225589/mccray-feldberg-schweberger-tied-after-two-rounds-at-masters-worlds/20%Monthly2018-08-16 14:42
http://letsdiscgolf.com/2018/08/16/225592/flying-finns-take-off-at-european-championships-3/20%Monthly2018-08-16 14:25
http://letsdiscgolf.com/2018/08/16/225575/8162018-plumb-creek-park-dgc-in-knoxville-tn-hole-info-updated/20%Monthly2019-06-13 20:35
http://letsdiscgolf.com/2018/08/16/225570/hobson-grove-riverview-in-bowling-green-ky/20%Monthly2018-08-16 13:55
http://letsdiscgolf.com/2018/08/16/225572/tory-hole-park-dgc-in-elizabethtown-nc/20%Monthly2018-08-16 12:51
http://letsdiscgolf.com/2018/08/16/225567/inskip-park-junior-dgc-in-knoxville-tn-8/20%Monthly2018-08-16 06:09
http://letsdiscgolf.com/2018/08/16/225982/on-the-road-to-kansas-city-tonns-travels/20%Monthly2018-08-16 03:39
http://letsdiscgolf.com/2018/08/16/225534/big-stone-gap-dgc-in-big-stone-gap-va/20%Monthly2018-08-16 03:24
http://letsdiscgolf.com/2018/08/16/225531/8152018-mont-du-lac-ace-run-in-superior-wi-new-photos-uploaded/20%Monthly2018-08-16 01:49
http://letsdiscgolf.com/2018/08/16/225524/mont-du-lac-ace-run-in-superior-wi-4/20%Monthly2018-08-16 01:31
http://letsdiscgolf.com/2018/08/16/225526/lower-columbia-dgc-in-astoria-or-7/20%Monthly2018-08-16 01:24
http://letsdiscgolf.com/2018/08/16/225528/salado-united-methodist-church-in-salado-tx/20%Monthly2018-08-16 01:06
http://letsdiscgolf.com/2018/08/15/225522/8152018-wirth-par-3-in-golden-valley-mn-course-info-updated/20%Monthly2018-09-13 22:13
http://letsdiscgolf.com/2018/08/15/225520/cedar-creek-east-in-fairmont-mn-4/20%Monthly2018-08-15 22:39
http://letsdiscgolf.com/2018/08/15/225510/winton-woods-in-cincinnati-oh-8/20%Monthly2018-08-15 21:53
http://letsdiscgolf.com/2018/08/15/225512/ymca-of-the-rockies-in-estes-park-co-6/20%Monthly2018-08-15 21:46
http://letsdiscgolf.com/2018/08/15/225514/whistlers-bend-in-roseburg-or-16/20%Monthly2018-08-15 21:26
http://letsdiscgolf.com/2018/08/15/225516/brooktrails-in-willits-ca-13/20%Monthly2018-08-15 21:12
http://letsdiscgolf.com/2018/08/15/225518/golden-gate-park-dgc-in-san-francisco-ca-44/20%Monthly2018-08-15 21:05
http://letsdiscgolf.com/2018/08/15/225497/stafford-lake-county-park-in-novato-ca-23/20%Monthly2018-08-15 20:58
http://letsdiscgolf.com/2018/08/15/225499/delaveaga-park-in-santa-cruz-ca-33/20%Monthly2018-08-15 20:53
http://letsdiscgolf.com/2018/08/15/225503/8152018-south-park-of-wood-county-in-wisconsin-rapids-wi-hole-info-updated/20%Monthly2019-02-18 01:42
http://letsdiscgolf.com/2018/08/15/225505/8152018-the-fox-coyner-springs-in-waynesboro-va-course-info-updated/20%Monthly2018-09-04 21:56
http://letsdiscgolf.com/2018/08/15/225492/8152018-jim-barnett-park-in-winchester-va-course-info-updated/20%Monthly2018-08-15 19:53
http://letsdiscgolf.com/2018/08/15/225489/randolph-college-dgc-in-lynchburg-va-5/20%Monthly2018-08-15 18:11
http://letsdiscgolf.com/2018/08/15/225483/oak-grove-hahamongna-park-in-pasadena-ca-18/20%Monthly2018-08-15 17:16
http://letsdiscgolf.com/2018/08/15/225485/sky-high-dgc-in-wrightwood-ca-8/20%Monthly2018-08-15 17:10
http://letsdiscgolf.com/2018/08/15/225487/la-mirada-regional-park-front-18-in-la-mirada-ca-22/20%Monthly2018-08-15 17:04
http://letsdiscgolf.com/2018/08/15/225480/brooktrails-in-willits-ca-12/20%Monthly2018-08-15 15:57
http://letsdiscgolf.com/2018/08/15/225508/get-a-clue-mcluen-learns-from-past-to-take-early-masters-worlds-lead/20%Monthly2018-08-15 14:49
http://letsdiscgolf.com/2018/08/15/225475/keyes-peak-dgc-in-florence-wi-4/20%Monthly2018-08-15 14:05
http://letsdiscgolf.com/2018/08/15/225477/silver-lake-dgc-in-fenton-mi-4/20%Monthly2018-08-15 13:46
http://letsdiscgolf.com/2018/08/15/225471/miller-park-dgc-in-corbin-ky-3/20%Monthly2018-08-15 13:23
http://letsdiscgolf.com/2018/08/15/225473/holmes-park-in-greenville-sc-3/20%Monthly2018-08-15 12:10
http://letsdiscgolf.com/2018/08/15/225468/gower-park-in-greenville-sc-3/20%Monthly2018-08-15 11:57
http://letsdiscgolf.com/2018/08/15/225434/the-lodge-island-course-in-pawhuska-ok-5/20%Monthly2018-08-15 05:24
http://letsdiscgolf.com/2018/08/15/225426/mcnaughton-park-in-pekin-il-9/20%Monthly2018-08-15 03:12
http://letsdiscgolf.com/2018/08/15/225428/lake-eureka-dgc-in-eureka-il-7/20%Monthly2018-08-15 03:03
http://letsdiscgolf.com/2018/08/15/225430/8142018-bluebird-dgc-in-plover-wi-hole-info-updated/20%Monthly2019-02-18 01:58
http://letsdiscgolf.com/2018/08/15/225385/wildlife-prairie-park-dgc-in-hanna-city-peoria-il-7/20%Monthly2018-08-15 02:57
http://letsdiscgolf.com/2018/08/15/225387/summit-park-in-summit-il-7/20%Monthly2018-08-15 02:51
http://letsdiscgolf.com/2018/08/14/225390/croatia-prepared-to-crown-european-champions/20%Monthly2018-08-14 23:31
http://letsdiscgolf.com/2018/08/14/225377/ethel-lee-tracy-dgc-in-victoria-tx/20%Monthly2018-08-14 21:26
http://letsdiscgolf.com/2018/08/14/225379/royal-berks-dgc-in-wokingham-united-kingdom-3/20%Monthly2018-08-14 21:10
http://letsdiscgolf.com/2018/08/14/225381/kensington-black-locust-green-in-milford-mi-2/20%Monthly2018-08-14 21:01
http://letsdiscgolf.com/2018/08/14/225375/8142018-lake-pahoja-rec-area-in-inwood-ia-course-info-updated/20%Monthly2018-08-14 20:32
http://letsdiscgolf.com/2018/08/14/225371/moraine-state-park-in-portersville-pa-26/20%Monthly2018-08-14 20:00
http://letsdiscgolf.com/2018/08/14/225359/parc-des-familles-dgc-in-marrero-la-3/20%Monthly2018-08-14 19:11
http://letsdiscgolf.com/2018/08/14/225366/8142018-huntley-park-district-dgc-in-huntley-il-new-photos-uploaded/20%Monthly2019-09-10 01:12
http://letsdiscgolf.com/2018/08/14/225361/athens-regional-park-dgc-in-athens-tn-6/20%Monthly2018-08-14 18:53
http://letsdiscgolf.com/2018/08/14/225369/pdga-radio-episode-27-nate-sexton-ledgestone-recap/20%Monthly2018-08-14 18:46
http://letsdiscgolf.com/2018/08/14/225363/churchville-6-in-churchville-md-5/20%Monthly2018-08-14 18:39
http://letsdiscgolf.com/2018/08/14/225356/wilderness-dgc-in-montello-wi-7/20%Monthly2018-08-14 17:01
http://letsdiscgolf.com/2018/08/14/225353/st-ambrose-cellars-dgc-in-beulah-mi/20%Monthly2018-08-14 16:24
http://letsdiscgolf.com/2018/08/14/225342/wintersun-in-fairview-nc/20%Monthly2018-08-14 14:47
http://letsdiscgolf.com/2018/08/14/225344/wintersun-in-fairview-nc-2/20%Monthly2018-08-14 14:24
http://letsdiscgolf.com/2018/08/14/225350/8142018-riegel-mammoth-dgc-in-saint-croix-falls-wi-course-info-updated/20%Monthly2019-03-04 00:21
http://letsdiscgolf.com/2018/08/14/225346/trail-of-tears-park-in-hopkinsville-ky-3/20%Monthly2018-08-14 13:36
http://letsdiscgolf.com/2018/08/14/225340/carter-park-in-bowling-green-oh-7/20%Monthly2018-08-14 12:39
http://letsdiscgolf.com/2018/08/14/225306/arapahoe-basin-dgc-in-dillon-co-2/20%Monthly2018-08-14 05:30
http://letsdiscgolf.com/2018/08/14/225295/smugglers-notch-brewster-ridge-in-jeffersonville-vt-30/20%Monthly2018-08-14 02:30
http://letsdiscgolf.com/2018/08/14/225282/8132018-cedar-creek-west-in-fairmont-mn-course-info-updated/20%Monthly2018-08-14 03:08
http://letsdiscgolf.com/2018/08/14/225297/501-disc-golf-in-warren-ma-10/20%Monthly2018-08-14 01:49
http://letsdiscgolf.com/2018/08/14/225299/tc3-panther-highlands-in-dryden-ny-4/20%Monthly2018-08-14 01:25
http://letsdiscgolf.com/2018/08/14/225291/8132018-cedar-creek-central-in-fairmont-mn-hole-info-updated/20%Monthly2018-08-14 01:06
http://letsdiscgolf.com/2018/08/14/225292/8132018-cedar-creek-central-in-fairmont-mn-hole-info-updated-2/20%Monthly2018-09-01 21:07
http://letsdiscgolf.com/2018/08/13/225280/creve-coeur-dgc-in-creve-coeur-il-10/20%Monthly2018-08-13 23:27
http://letsdiscgolf.com/2018/08/13/225271/darlington-school-dgc-in-rome-ga-2/20%Monthly2018-08-13 21:41
http://letsdiscgolf.com/2018/08/13/225273/lloyd-park-in-croydon-london-united-kingdom-5/20%Monthly2018-08-13 21:21
http://letsdiscgolf.com/2018/08/13/225275/deerfield-community-park-in-irvine-ca-14/20%Monthly2018-08-13 21:07
http://letsdiscgolf.com/2018/08/13/225277/trapp-family-lodge-in-stowe-vt-9/20%Monthly2018-08-13 20:53
http://letsdiscgolf.com/2018/08/13/225234/truckee-river-regional-park-in-truckee-ca-9/20%Monthly2018-08-13 19:55
http://letsdiscgolf.com/2018/08/13/225230/mad-river-pump-station-4-in-arcata-ca-3/20%Monthly2018-08-13 18:33
http://letsdiscgolf.com/2018/08/13/225232/donner-ski-ranch-in-norden-ca-2/20%Monthly2018-08-13 18:23
http://letsdiscgolf.com/2018/08/13/225223/williston-disc-golf-in-wiliston-vt-5/20%Monthly2018-08-13 17:48
http://letsdiscgolf.com/2018/08/13/225225/sand-ridge-dgc-in-bridgman-mi-4/20%Monthly2018-08-13 17:17
http://letsdiscgolf.com/2018/08/13/225220/8132018-falcon-ridge-dgc-in-sheboygan-falls-wi-course-info-updated/20%Monthly2018-10-11 22:31
http://letsdiscgolf.com/2018/08/13/225218/cvu-high-school-dgc-in-hinesburg-vt-6/20%Monthly2018-08-13 16:26
http://letsdiscgolf.com/2018/08/13/225268/kansas-city-rolls-out-red-carpet-for-masters-worlds/20%Monthly2018-08-13 14:36
http://letsdiscgolf.com/2018/08/13/225210/8132018-the-arc-dgc-in-glasgow-united-kingdom-new-photos-uploaded/20%Monthly2018-08-13 11:46
http://letsdiscgolf.com/2018/08/13/225208/west-park-in-joliet-il-8/20%Monthly2018-08-13 11:28
http://letsdiscgolf.com/2018/08/13/225203/university-of-essex-colchester-in-colchester-united-kingdom-3/20%Monthly2018-08-13 07:48
http://letsdiscgolf.com/2018/08/13/225206/weese-sexton-take-down-impressive-wins-at-discraft-ledgestone-insurance-open/20%Monthly2018-08-13 04:40
http://letsdiscgolf.com/2018/08/13/225196/timmons-park-in-greenville-sc-13/20%Monthly2018-08-13 01:35
http://letsdiscgolf.com/2018/08/13/225198/klambratni-park-in-reykjavik-iceland-6/20%Monthly2018-08-13 01:28
http://letsdiscgolf.com/2018/08/13/225200/hofn-campground-in-hfn-iceland/20%Monthly2018-08-13 01:17
http://letsdiscgolf.com/2018/08/13/225194/8122018-hustisford-high-school-dgc-in-hustisford-wi-new-file-uploaded/20%Monthly2018-08-15 05:41
http://letsdiscgolf.com/2018/08/12/225188/8122018-ravens-bowl-in-haines-ak-hole-info-updated/20%Monthly2018-08-19 00:02
http://letsdiscgolf.com/2018/08/12/225180/8122018-old-pike-country-club-in-gladstone-mo-course-info-updated/20%Monthly2019-01-27 20:00
http://letsdiscgolf.com/2018/08/12/225173/dabney-state-park-in-troutdale-or-10/20%Monthly2018-08-12 18:05
http://letsdiscgolf.com/2018/08/12/225175/pier-park-in-portland-or-28/20%Monthly2018-08-12 17:46
http://letsdiscgolf.com/2018/08/12/225177/xerox-dgc-in-wilsonville-or-4/20%Monthly2018-08-12 17:35
http://letsdiscgolf.com/2018/08/12/225170/8122018-pleasant-run-creek-park-in-bolivar-tn-course-info-updated/20%Monthly2018-08-12 16:28
http://letsdiscgolf.com/2018/08/12/225163/8122018-portsmouth-coast-guard-base-in-portsmouth-va-course-info-updated/20%Monthly2018-08-12 13:31
http://letsdiscgolf.com/2018/08/12/225156/the-pines-dgc-in-sharpsville-pa/20%Monthly2018-08-12 08:26
http://letsdiscgolf.com/2018/08/12/225151/8122018-town-of-cochrane-disc-golf-course-in-cochrane-ab-new-photos-uploaded/20%Monthly2018-08-12 07:02
http://letsdiscgolf.com/2018/08/12/225147/buhl-park-in-hermitage-pa-22/20%Monthly2018-08-12 04:09
http://letsdiscgolf.com/2018/08/12/225161/weese-leads-ledgestone-by-four-heading-into-final-round/20%Monthly2018-08-12 04:08
http://letsdiscgolf.com/2018/08/12/225144/8112018-no-boundary-dgc-in-cranberry-township-pa-course-info-updated/20%Monthly2019-10-07 20:41
http://letsdiscgolf.com/2018/08/12/225137/rock-river-park-in-fort-atkinson-wi-4/20%Monthly2018-08-12 00:36
http://letsdiscgolf.com/2018/08/11/225128/8112018-granger-commons-dgc-in-granger-in-course-info-updated/20%Monthly2018-08-11 21:37
http://letsdiscgolf.com/2018/08/11/225130/8112018-sbhs-dgc-in-streamwood-il-new-link-added/20%Monthly2018-12-23 02:56
http://letsdiscgolf.com/2018/08/11/225093/dillon-park-in-sumter-sc-5/20%Monthly2018-08-11 17:29
http://letsdiscgolf.com/2018/08/11/225091/8112018-saratoga-spa-state-park-in-saratoga-springs-ny-new-photos-uploaded/20%Monthly2018-11-05 18:19
http://letsdiscgolf.com/2018/08/11/225088/swenson-park-dgc-in-stockton-ca/20%Monthly2018-08-11 15:27
http://letsdiscgolf.com/2018/08/11/225077/sun-valley-middle-school-in-indian-trail-nc/20%Monthly2018-08-11 14:25
http://letsdiscgolf.com/2018/08/11/225075/8112018-buckeye-central-dgc-in-new-washington-oh-hole-info-updated/20%Monthly2019-09-10 17:28
http://letsdiscgolf.com/2018/08/11/225086/risley-does-not-waffle-during-ledgestone-opens-second-round/20%Monthly2018-08-11 13:06
http://letsdiscgolf.com/2018/08/11/225037/fort-zumwalt-park-in-ofallon-mo-14/20%Monthly2018-08-11 07:08
http://letsdiscgolf.com/2018/08/11/225034/the-canyons-in-lockport-il-52/20%Monthly2018-08-11 05:02
http://letsdiscgolf.com/2018/08/11/225022/pinecrest-park-in-howard-wi-5/20%Monthly2018-08-11 03:42
http://letsdiscgolf.com/2018/08/11/225029/8102018-kankakee-highlands-in-north-judson-in-course-info-updated/20%Monthly2019-08-02 04:10
http://letsdiscgolf.com/2018/08/11/225015/clear-lake-high-school-dgc-in-lakeport-ca-2/20%Monthly2018-08-11 02:05
http://letsdiscgolf.com/2018/08/11/225011/todd-park-in-austin-mn-5/20%Monthly2018-08-11 00:25
http://letsdiscgolf.com/2018/08/10/225005/8102018-faith-church-in-florence-al-course-info-updated/20%Monthly2018-09-01 15:33
http://letsdiscgolf.com/2018/08/10/225013/coserve-lost-pines-in-corinth-tx/20%Monthly2018-08-10 23:38
http://letsdiscgolf.com/2018/08/10/225002/maarjame-discgolfpark-in-tallinn-estonia/20%Monthly2018-08-10 21:03
http://letsdiscgolf.com/2018/08/10/224998/st-columbs-park-in-londonderry-united-kingdom/20%Monthly2018-08-10 20:48
http://letsdiscgolf.com/2018/08/10/224995/8102018-union-academy-in-monroe-nc-course-info-updated/20%Monthly2019-02-03 12:06
http://letsdiscgolf.com/2018/08/10/224990/jacobson-park-dgc-in-lexington-ky-19/20%Monthly2018-08-10 11:49
http://letsdiscgolf.com/2018/08/10/224985/the-lodge-moccasin-creek-in-pawhuska-ok-7/20%Monthly2018-08-10 07:09
http://letsdiscgolf.com/2018/08/10/224983/neskowin-creek-rv-resort-in-neskowin-or-6/20%Monthly2018-08-10 06:13
http://letsdiscgolf.com/2018/08/10/224949/trapp-family-lodge-in-stowe-vt-8/20%Monthly2018-08-10 04:18
http://letsdiscgolf.com/2018/08/10/224988/weese-pierce-tied-after-ledgestones-opening-round/20%Monthly2018-08-10 02:18
http://letsdiscgolf.com/2018/08/10/224945/892018-wildcat-dgc-in-abilene-tx-new-photos-uploaded/20%Monthly2019-08-13 15:53
http://letsdiscgolf.com/2018/08/10/224947/892018-kickapoo-creek-in-bronte-tx-new-photos-uploaded/20%Monthly2018-08-10 02:04
http://letsdiscgolf.com/2018/08/09/224937/twin-oaks-dgc-in-crab-orchard-wv/20%Monthly2018-08-09 22:50
http://letsdiscgolf.com/2018/08/09/224939/mill-brook-dgc-in-churchville-md-3/20%Monthly2018-08-09 21:12
http://letsdiscgolf.com/2018/08/09/224926/ella-sharp-park-dgc-in-jackson-mi-2/20%Monthly2018-08-09 20:56
http://letsdiscgolf.com/2018/08/09/224928/fayette-county-park-in-fayetteville-wv/20%Monthly2018-08-09 20:20
http://letsdiscgolf.com/2018/08/09/224922/krape-park-in-freeport-il-3/20%Monthly2018-08-09 19:33
http://letsdiscgolf.com/2018/08/09/224912/892018-lake-showme-dgc-in-memphis-mo-course-info-updated/20%Monthly2018-11-20 21:03
http://letsdiscgolf.com/2018/08/09/224924/ufogolf-in-riga-latvia-4/20%Monthly2018-08-09 18:30
http://letsdiscgolf.com/2018/08/09/224906/anna-page-park-east-in-rockford-il-18/20%Monthly2018-08-09 18:02
http://letsdiscgolf.com/2018/08/09/224908/lake-showme-dgc-in-memphis-mo/20%Monthly2018-08-09 17:48
http://letsdiscgolf.com/2018/08/09/224910/research-park-in-college-station-tx-7/20%Monthly2018-08-09 17:20
http://letsdiscgolf.com/2018/08/09/224898/892018-lakeview-recreation-area-dgc-in-chanute-ks-new-link-added/20%Monthly2019-08-03 04:54
http://letsdiscgolf.com/2018/08/09/224901/892018-lake-eureka-ledgestone-layout-in-eureka-il-new-link-added/20%Monthly2018-08-09 16:54
http://letsdiscgolf.com/2018/08/09/224903/892018-lake-eureka-dgc-in-eureka-il-new-link-added/20%Monthly2018-08-09 16:48
http://letsdiscgolf.com/2018/08/09/224931/usjdgc-wrap-up/20%Monthly2018-08-09 15:05
http://letsdiscgolf.com/2018/08/09/224894/pioneer-park-summer-9-in-billings-mt-4/20%Monthly2018-08-09 14:55
http://letsdiscgolf.com/2018/08/09/224896/tcc-northwest-campus-in-fort-worth-tx-12/20%Monthly2018-08-09 14:13
http://letsdiscgolf.com/2018/08/09/224892/heritage-park-dgc-in-andrews-nc-3/20%Monthly2018-08-09 12:40
http://letsdiscgolf.com/2018/08/09/224878/tall-grass-dgc-in-albert-lea-mn-3/20%Monthly2018-08-09 03:53
http://letsdiscgolf.com/2018/08/09/224880/pyramids-pink-in-leicester-ma-6/20%Monthly2018-08-09 03:10
http://letsdiscgolf.com/2018/08/09/224882/beatriz-garza-middle-school-dgc-in-weslaco-tx/20%Monthly2018-08-09 02:58
http://letsdiscgolf.com/2018/08/09/224866/la-mirada-regional-park-back-18-in-la-mirada-ca-15/20%Monthly2018-08-09 02:18
http://letsdiscgolf.com/2018/08/09/224868/la-mirada-regional-park-front-18-in-la-mirada-ca-21/20%Monthly2018-08-09 02:09
http://letsdiscgolf.com/2018/08/09/224871/882018-kimberly-high-school-in-kimberly-wi-new-photos-uploaded/20%Monthly2018-08-09 01:34
http://letsdiscgolf.com/2018/08/09/224876/882018-pierce-park-in-appleton-wi-new-photos-uploaded/20%Monthly2018-08-09 01:19
http://letsdiscgolf.com/2018/08/09/224862/gufunes-in-reykjavik-iceland/20%Monthly2018-08-09 00:12
http://letsdiscgolf.com/2018/08/09/224864/hornets-nest-park-in-charlotte-nc-29/20%Monthly2018-08-09 00:06
http://letsdiscgolf.com/2018/08/08/224848/882018-wintersun-in-fairview-nc-course-info-updated/20%Monthly2018-08-08 23:16
http://letsdiscgolf.com/2018/08/08/224853/882018-codorus-state-park-red-course-in-hanover-pa-new-tournament-added/20%Monthly2019-07-30 00:20
http://letsdiscgolf.com/2018/08/08/224856/882018-codorus-state-park-blue-course-in-hanover-pa-new-tournament-added/20%Monthly2019-07-30 00:00
http://letsdiscgolf.com/2018/08/08/224859/882018-pinchot-state-park-boulder-woods-in-lewisberry-pa-new-tournament-added/20%Monthly2018-09-28 18:48
http://letsdiscgolf.com/2018/08/08/224844/882018-vista-beast-in-bolton-valley-vt-hole-info-updated/20%Monthly2019-07-02 20:00
http://letsdiscgolf.com/2018/08/08/224842/west-park-in-joliet-il-7/20%Monthly2018-08-08 20:32
http://letsdiscgolf.com/2018/08/08/224834/the-woods-st-marys-in-winona-mn-6/20%Monthly2018-08-08 19:14
http://letsdiscgolf.com/2018/08/08/224829/the-hollows-south-in-manchester-nh/20%Monthly2018-08-08 15:00
http://letsdiscgolf.com/2018/08/08/224820/burgess-park-in-marstons-mills-ma-4/20%Monthly2018-08-08 14:55
http://letsdiscgolf.com/2018/08/08/224822/justin-trails-big-brother-dgc-in-sparta-wi-28/20%Monthly2018-08-08 14:14
http://letsdiscgolf.com/2018/08/08/224809/fellowship-bible-church-in-brentwood-tn-6/20%Monthly2018-08-08 05:41
http://letsdiscgolf.com/2018/08/08/224807/west-unity-memorial-park-in-west-unity-oh/20%Monthly2018-08-08 04:35
http://letsdiscgolf.com/2018/08/08/224804/harrison-lake-state-park-in-fayette-oh-3/20%Monthly2018-08-08 04:21
http://letsdiscgolf.com/2018/08/08/224771/fossvogsvllur-in-reykjavk-iceland-2/20%Monthly2018-08-08 01:19
http://letsdiscgolf.com/2018/08/07/224813/chatting-disc-golf-with-espns-john-buccigross/20%Monthly2018-08-07 22:35
http://letsdiscgolf.com/2018/08/07/224768/872018-frisco-disco-in-frisco-nc-course-info-updated/20%Monthly2018-11-30 16:21
http://letsdiscgolf.com/2018/08/07/224765/wetaskiwin-dgc-in-wetaskiwin-ab-5/20%Monthly2018-08-07 21:16
http://letsdiscgolf.com/2018/08/07/224754/872018-west-unity-memorial-park-in-west-unity-oh-new-photos-uploaded/20%Monthly2019-01-23 03:17
http://letsdiscgolf.com/2018/08/07/224752/greenfield-dgc-in-troutville-va-29/20%Monthly2018-08-07 19:08
http://letsdiscgolf.com/2018/08/07/224748/the-scrapyard-in-matthews-nc-17/20%Monthly2018-08-07 18:42
http://letsdiscgolf.com/2018/08/07/224750/north-eco-in-canby-or-12/20%Monthly2018-08-07 17:56
http://letsdiscgolf.com/2018/08/07/224763/pdga-radio-episode-26-ledgestone-preview/20%Monthly2018-08-07 17:51
http://letsdiscgolf.com/2018/08/07/224740/872018-piney-point-dgc-in-norwood-nc-hole-info-updated/20%Monthly2018-08-11 01:26
http://letsdiscgolf.com/2018/08/07/224742/872018-camp-great-adventure-in-garner-nc-hole-info-updated/20%Monthly2018-08-07 15:26
http://letsdiscgolf.com/2018/08/07/224746/smugglers-notch-village-9-in-jeffersonville-vt-2/20%Monthly2018-08-07 15:12
http://letsdiscgolf.com/2018/08/07/224744/872018-lake-corriher-in-china-grove-nc-hole-info-updated/20%Monthly2018-12-07 02:09
http://letsdiscgolf.com/2018/08/07/224737/872018-sim-usa-in-charlotte-nc-hole-info-updated/20%Monthly2018-08-07 14:55
http://letsdiscgolf.com/2018/08/07/224840/how-tournament-directors-are-staying-proactive/20%Monthly2018-08-07 10:39
http://letsdiscgolf.com/2018/08/07/224733/872018-monett-dgc-in-monett-mo-course-info-updated/20%Monthly2018-08-07 05:38
http://letsdiscgolf.com/2018/08/07/224729/white-river-in-auburn-wa-11/20%Monthly2018-08-07 03:52
http://letsdiscgolf.com/2018/08/07/224723/margreth-riemer-reservoir-in-palatine-il-19/20%Monthly2018-08-07 02:45
http://letsdiscgolf.com/2018/08/07/224727/862018-goodfield-park-in-goodfield-il-hole-info-updated/20%Monthly2018-10-26 18:15
http://letsdiscgolf.com/2018/08/07/224725/bethel-park-dgc-in-morganton-nc-2/20%Monthly2018-08-07 01:52
http://letsdiscgolf.com/2018/08/07/224718/862018-bethel-park-dgc-in-morganton-nc-course-info-updated/20%Monthly2018-08-07 01:41
http://letsdiscgolf.com/2018/08/07/224707/old-town-dgc-in-negaunee-mi/20%Monthly2018-08-07 01:24
http://letsdiscgolf.com/2018/08/07/224709/winter-sun-in-fairview-nc-3/20%Monthly2018-08-07 00:46
http://letsdiscgolf.com/2018/08/07/224711/monett-dgc-in-monett-mo-3/20%Monthly2018-08-07 00:38
http://letsdiscgolf.com/2018/08/07/224713/browns-pointbuzzys-creek-in-west-milford-nj-3/20%Monthly2018-08-07 00:38
http://letsdiscgolf.com/2018/08/07/224721/862018-grand-geneva-resort-amp-spa-in-lake-geneva-wi-new-photos-uploaded/20%Monthly2018-10-21 20:23
http://letsdiscgolf.com/2018/08/06/224705/862018-karel-park-in-eldorado-il-hole-info-updated/20%Monthly2019-09-26 02:34
http://letsdiscgolf.com/2018/08/06/224701/adrian-dgc-in-adrian-mn-5/20%Monthly2018-08-06 23:06
http://letsdiscgolf.com/2018/08/06/224668/862018-adrian-dgc-in-adrian-mn-course-info-updated/20%Monthly2018-08-06 22:53
http://letsdiscgolf.com/2018/08/06/224703/pioneer-park-in-brandon-sd-3/20%Monthly2018-08-06 22:46
http://letsdiscgolf.com/2018/08/06/224665/timberwolf-run-dgc-in-wausau-wi/20%Monthly2018-08-06 20:40
http://letsdiscgolf.com/2018/08/06/224658/ej-roberts-dgc-in-north-bend-wa-5/20%Monthly2018-08-06 20:20
http://letsdiscgolf.com/2018/08/06/224653/862018-etowah-lions-park-in-etowah-nc-hole-info-updated/20%Monthly2018-08-06 19:54
http://letsdiscgolf.com/2018/08/06/224663/another-5k-awarded-to-pdga-innovation-grant-program-winners/20%Monthly2018-08-06 19:04
http://letsdiscgolf.com/2018/08/06/224638/862018-brevard-community-church-in-brevard-nc-hole-info-updated/20%Monthly2018-11-06 21:18
http://letsdiscgolf.com/2018/08/06/224640/862018-hudson-middle-school-in-hudson-nc-hole-info-updated/20%Monthly2018-08-06 18:43
http://letsdiscgolf.com/2018/08/06/224643/862018-sun-valley-middle-school-in-indian-trail-nc-hole-info-updated/20%Monthly2019-08-19 01:17
http://letsdiscgolf.com/2018/08/06/224645/862018-leland-municipal-park-in-leland-nc-hole-info-updated/20%Monthly2019-09-19 02:51
http://letsdiscgolf.com/2018/08/06/224647/buffalo-bobs-in-whitefish-mt/20%Monthly2018-08-06 18:23
http://letsdiscgolf.com/2018/08/06/224649/sunny-lake-dgc-in-aurora-oh-9/20%Monthly2018-08-06 18:13
http://letsdiscgolf.com/2018/08/06/224633/862018-mount-airy-high-school-in-mount-airy-nc-hole-info-updated/20%Monthly2018-08-06 17:58
http://letsdiscgolf.com/2018/08/06/224651/faircrest-park-in-canton-oh-2/20%Monthly2018-08-06 17:54
http://letsdiscgolf.com/2018/08/06/224627/nordic-valley-in-eden-ut/20%Monthly2018-08-06 15:42
http://letsdiscgolf.com/2018/08/06/224629/broughtons-big-buckeye-in-marietta-oh/20%Monthly2018-08-06 15:31
http://letsdiscgolf.com/2018/08/06/224631/valley-gardens-in-harrogate-united-kingdom-2/20%Monthly2018-08-06 15:28
http://letsdiscgolf.com/2018/08/06/224619/862018-clyde-fant-dgc-in-shreveport-la-new-video-added/20%Monthly2018-08-06 15:19
http://letsdiscgolf.com/2018/08/06/224613/evergreen-park-in-kane-pa-4/20%Monthly2018-08-06 14:52
http://letsdiscgolf.com/2018/08/06/224625/862018-round-peak-vineyard-dgc-in-mount-airy-nc-hole-info-updated/20%Monthly2019-01-23 15:57
http://letsdiscgolf.com/2018/08/06/224615/white-house-park-in-white-house-tn-16/20%Monthly2018-08-06 14:23
http://letsdiscgolf.com/2018/08/06/224617/dunncroft-castle-point-park-in-richmond-va-3/20%Monthly2018-08-06 14:13
http://letsdiscgolf.com/2018/08/06/224611/862018-pinchot-state-park-quakers-challenge-in-lewisberry-pa-photo-info-updated/20%Monthly2018-08-08 22:46
http://letsdiscgolf.com/2018/08/06/224607/862018-furutangen-diskgolf-in-osen-norway-course-info-updated/20%Monthly2018-08-06 09:55
http://letsdiscgolf.com/2018/08/06/224605/862018-valley-gardens-in-harrogate-united-kingdom-new-photos-uploaded/20%Monthly2018-08-06 08:41
http://letsdiscgolf.com/2018/08/06/224568/lake-mcmurtry-north-in-stillwater-ok-3/20%Monthly2018-08-06 04:15
http://letsdiscgolf.com/2018/08/06/224570/central-united-methodist-church-dgc-in-lenoir-city-tn-3/20%Monthly2018-08-06 04:06
http://letsdiscgolf.com/2018/08/06/224565/torma-town-in-charlotte-nc-3/20%Monthly2018-08-06 02:42
http://letsdiscgolf.com/2018/08/06/224552/silverview-dgc-in-mounds-view-mn-4/20%Monthly2018-08-06 01:38
http://letsdiscgolf.com/2018/08/06/224542/nike-park-in-parma-oh/20%Monthly2018-08-06 00:32
http://letsdiscgolf.com/2018/08/05/224544/hillcrest-dgc-in-bonshaw-pe-12/20%Monthly2018-08-05 23:50
http://letsdiscgolf.com/2018/08/05/224546/riverview-park-in-peterborough-on-2/20%Monthly2018-08-05 23:46
http://letsdiscgolf.com/2018/08/05/224548/jo-clark-siegert-dgc-in-pana-il-2/20%Monthly2018-08-05 23:40
http://letsdiscgolf.com/2018/08/05/224550/cartwright-fields-in-nestleton-on/20%Monthly2018-08-05 23:37
http://letsdiscgolf.com/2018/08/05/224537/porcupine-ridge-in-augusta-me-8/20%Monthly2018-08-05 21:36
http://letsdiscgolf.com/2018/08/05/224530/creeping-creek-dgc-in-hampstead-md-4/20%Monthly2018-08-05 19:58
http://letsdiscgolf.com/2018/08/05/224525/852018-fossvogsvllur-in-reykjavk-iceland-photo-info-updated/20%Monthly2018-08-05 19:57
http://letsdiscgolf.com/2018/08/05/224563/several-close-battles-remain-heading-into-usjdgc-final-rounds/20%Monthly2018-08-05 19:33
http://letsdiscgolf.com/2018/08/05/224532/vandalia-dgc-in-vandalia-il-3/20%Monthly2018-08-05 19:02
http://letsdiscgolf.com/2018/08/05/224575/christmas-morning-for-a-course-collector-tonns-travels/20%Monthly2018-08-05 18:57
http://letsdiscgolf.com/2018/08/05/224521/park-oudegein-in-nieuwegein-netherlands/20%Monthly2018-08-05 18:30
http://letsdiscgolf.com/2018/08/05/224523/sloterpark-in-amsterdam-netherlands-4/20%Monthly2018-08-05 18:25
http://letsdiscgolf.com/2018/08/05/224517/the-tailings-in-iron-river-mi-4/20%Monthly2018-08-05 17:28
http://letsdiscgolf.com/2018/08/05/224519/osceola-dgc-in-osceola-ia-3/20%Monthly2018-08-05 16:56
http://letsdiscgolf.com/2018/08/05/224513/tiffin-timbers-in-tiffin-ia/20%Monthly2018-08-05 16:16
http://letsdiscgolf.com/2018/08/05/224501/monroe-community-park-in-monroe-oh-12/20%Monthly2018-08-05 14:10
http://letsdiscgolf.com/2018/08/05/224503/belmont-park-in-dayton-oh-12/20%Monthly2018-08-05 14:08
http://letsdiscgolf.com/2018/08/05/224505/brent-hambrick-memorial-dgc-in-columbus-oh-18/20%Monthly2018-08-05 14:06
http://letsdiscgolf.com/2018/08/05/224507/reservoir-ridge-dgc-in-galion-oh-14/20%Monthly2018-08-05 14:02
http://letsdiscgolf.com/2018/08/05/224490/friends-of-punderson-dgc-in-newbury-oh-17/20%Monthly2018-08-05 13:59
http://letsdiscgolf.com/2018/08/05/224492/flat-rocks-dgc-in-lancaster-oh-9/20%Monthly2018-08-05 13:56
http://letsdiscgolf.com/2018/08/05/224494/paint-creek-state-park-in-bainbridge-oh-11/20%Monthly2018-08-05 13:53
http://letsdiscgolf.com/2018/08/05/224496/osage-grove-dgc-in-goshen-oh-21/20%Monthly2018-08-05 13:50
http://letsdiscgolf.com/2018/08/05/224498/sunny-lake-dgc-in-aurora-oh-8/20%Monthly2018-08-05 13:42
http://letsdiscgolf.com/2018/08/05/224484/hart-hydro-dgc-in-hart-mi/20%Monthly2018-08-05 04:28
http://letsdiscgolf.com/2018/08/05/224472/bradford-park-in-huntersville-nc-22/20%Monthly2018-08-05 02:49
http://letsdiscgolf.com/2018/08/05/224477/842018-westfield-lions-dgc-in-westfield-in-hole-info-updated/20%Monthly2019-07-07 19:48
http://letsdiscgolf.com/2018/08/05/224468/codorus-township-park-in-glen-rock-pa-5/20%Monthly2018-08-05 02:29
http://letsdiscgolf.com/2018/08/05/224580/water-water-everywhere-tonns-travels/20%Monthly2018-08-05 01:36
http://letsdiscgolf.com/2018/08/05/224470/hildebran-community-park-dgc-in-hildebran-nc-6/20%Monthly2018-08-05 01:22
http://letsdiscgolf.com/2018/08/05/224463/sunset-bay-dgc-in-worthington-mn-3/20%Monthly2018-08-05 00:39
http://letsdiscgolf.com/2018/08/05/224465/842018-baker-lake-park-dgc-in-peru-il-hole-info-updated/20%Monthly2019-06-13 20:45
http://letsdiscgolf.com/2018/08/04/224459/reedy-creek-park-in-charlotte-nc-16/20%Monthly2018-08-04 22:34
http://letsdiscgolf.com/2018/08/04/224450/842018-swover-creek-brewery-disc-golf-course-in-edinburg-va-new-photos-uploaded/20%Monthly2019-05-04 23:27
http://letsdiscgolf.com/2018/08/04/224457/kentwood-in-raleigh-nc-11/20%Monthly2018-08-04 20:38
http://letsdiscgolf.com/2018/08/04/224419/pinecrest-park-in-howard-wi-4/20%Monthly2018-08-04 17:03
http://letsdiscgolf.com/2018/08/04/224414/842018-willow-haven-park-amp-nature-center-in-kankakee-il-hole-info-updated/20%Monthly2018-09-02 22:08
http://letsdiscgolf.com/2018/08/04/224417/842018-codorus-township-park-in-glen-rock-pa-hole-info-updated/20%Monthly2018-08-08 22:46
http://letsdiscgolf.com/2018/08/04/224409/reinhardt-university-in-waleska-ga/20%Monthly2018-08-04 08:30
http://letsdiscgolf.com/2018/08/04/224407/5-fun-facts-about-national-disc-golf-day/20%Monthly2018-08-04 04:03
http://letsdiscgolf.com/2018/08/04/224448/inaugural-united-states-junior-disc-golf-championships-first-day-in-the-books/20%Monthly2018-08-04 04:01
http://letsdiscgolf.com/2018/08/04/224401/kelly-park-in-morrison-il-3/20%Monthly2018-08-04 02:55
http://letsdiscgolf.com/2018/08/04/224396/832018-vandalia-dgc-in-vandalia-il-new-news-item-added/20%Monthly2018-08-04 00:39
http://letsdiscgolf.com/2018/08/04/224393/sugarbush-peak-course-in-warren-vt-2/20%Monthly2018-08-04 00:28
http://letsdiscgolf.com/2018/08/03/224387/wonderland-in-minden-wv-7/20%Monthly2018-08-03 21:48
http://letsdiscgolf.com/2018/08/03/224383/athens-regional-park-dgc-in-athens-tn-5/20%Monthly2018-08-03 20:59
http://letsdiscgolf.com/2018/08/03/224385/walters-state-dgc-in-sevierville-tn-6/20%Monthly2018-08-03 20:58
http://letsdiscgolf.com/2018/08/03/224373/832018-henton-park-in-olivia-mn-new-photos-uploaded/20%Monthly2018-08-25 22:32
http://letsdiscgolf.com/2018/08/03/224376/brookland-middle-school-dgc-in-richmond-va-2/20%Monthly2018-08-03 18:20
http://letsdiscgolf.com/2018/08/03/224370/mayflower-hills-in-roanoke-va-9/20%Monthly2018-08-03 16:15
http://letsdiscgolf.com/2018/08/03/224366/vista-beast-in-richmond-vt/20%Monthly2018-08-03 15:56
http://letsdiscgolf.com/2018/08/03/224368/sugaw-creek-park-in-charlotte-nc-9/20%Monthly2018-08-03 15:35
http://letsdiscgolf.com/2018/08/03/224362/seven-oaks-park-in-nashville-tn-28/20%Monthly2018-08-03 13:50
http://letsdiscgolf.com/2018/08/03/224360/832018-siu-edwardsville-dgc-in-edwardsville-il-course-info-updated/20%Monthly2018-08-03 12:24
http://letsdiscgolf.com/2018/08/03/224379/directors-poll-week-10/20%Monthly2018-08-03 04:58
http://letsdiscgolf.com/2018/08/03/224354/lake-ponca-bois-darc-in-ponca-city-ok-3/20%Monthly2018-08-03 03:56
http://letsdiscgolf.com/2018/08/03/224343/wrightsville-beach-in-middlesex-vt-18/20%Monthly2018-08-03 02:15
http://letsdiscgolf.com/2018/08/03/224345/findley-state-park-dgc-in-wellington-oh-13/20%Monthly2018-08-03 02:09
http://letsdiscgolf.com/2018/08/03/224347/wilderness-dgc-in-montello-wi-6/20%Monthly2018-08-03 01:30
http://letsdiscgolf.com/2018/08/03/224349/rosedale-park-top-in-kansas-city-ks-18/20%Monthly2018-08-03 01:27
http://letsdiscgolf.com/2018/08/03/224351/lodi-middle-school-in-lodi-wi/20%Monthly2018-08-03 01:01
http://letsdiscgolf.com/2018/08/03/224341/dr-disc-golf-bobcat-in-orrington-me-3/20%Monthly2018-08-03 00:21
http://letsdiscgolf.com/2018/08/02/224336/ocean-county-park-dgc-in-lakewood-nj-20/20%Monthly2018-08-02 22:33
http://letsdiscgolf.com/2018/08/02/227438/tyler-state-park-east-in-newtown-pa-36-3/20%Monthly2018-08-02 22:27
http://letsdiscgolf.com/2018/08/02/227436/tyler-state-park-east-in-newtown-pa-36-2/20%Monthly2018-08-02 22:27
http://letsdiscgolf.com/2018/08/02/224334/tyler-state-park-east-in-newtown-pa-36/20%Monthly2018-08-02 22:27
http://letsdiscgolf.com/2018/08/02/224330/reservoir-course-in-cordova-ak/20%Monthly2018-08-02 20:42
http://letsdiscgolf.com/2018/08/02/224332/albert-oakland-park-upper-in-columbia-mo/20%Monthly2018-08-02 20:37
http://letsdiscgolf.com/2018/08/02/224325/white-mountain-dgc-in-campton-nh-8/20%Monthly2018-08-02 18:43
http://letsdiscgolf.com/2018/08/02/224321/822018-trinity-junior-high-dgc-in-fort-smith-ar-new-video-added/20%Monthly2018-08-02 18:36
http://letsdiscgolf.com/2018/08/02/224323/822018-cedar-glades-in-hot-springs-ar-new-video-added/20%Monthly2018-08-02 18:28
http://letsdiscgolf.com/2018/08/02/224328/nine-days-9000-responses/20%Monthly2018-08-02 17:43
http://letsdiscgolf.com/2018/08/02/224287/maple-hill-dgc-in-leicester-ma-34/20%Monthly2018-08-02 16:43
http://letsdiscgolf.com/2018/08/02/224289/stevens-mountain-view-in-turner-me-5/20%Monthly2018-08-02 15:25
http://letsdiscgolf.com/2018/08/02/224283/center-chains-dgc-in-waterbury-center-vt-15-2/20%Monthly2018-08-02 14:15
http://letsdiscgolf.com/2018/08/02/224277/center-chains-dgc-in-waterbury-center-vt-15/20%Monthly2018-08-02 14:15
http://letsdiscgolf.com/2018/08/02/224280/lake-point-park-in-heflin-al-11/20%Monthly2018-08-02 13:43
http://letsdiscgolf.com/2018/08/02/224264/frontier-park-in-hays-ks-12/20%Monthly2018-08-02 05:58
http://letsdiscgolf.com/2018/08/02/224266/delaveaga-golf-course-in-santa-cruz-ca-2/20%Monthly2018-08-02 05:16
http://letsdiscgolf.com/2018/08/02/224271/812018-maryknoll-park-in-glen-ellyn-il-hole-info-updated/20%Monthly2018-08-02 04:11
http://letsdiscgolf.com/2018/08/02/224260/wickham-park-in-manchester-ct-19/20%Monthly2018-08-02 03:49
http://letsdiscgolf.com/2018/08/02/224262/patch-park-in-charlestown-nh-4/20%Monthly2018-08-02 03:42
http://letsdiscgolf.com/2018/08/02/224258/blue-valley-park-in-kansas-city-mo-12/20%Monthly2018-08-02 00:01
http://letsdiscgolf.com/2018/08/01/224254/812018-nike-park-in-parma-oh-course-info-updated/20%Monthly2018-12-22 23:14
http://letsdiscgolf.com/2018/08/01/224256/l-l-stub-stewart-sp-pp-in-buxton-or-2/20%Monthly2018-08-01 22:52
http://letsdiscgolf.com/2018/08/01/224250/scioto-grove-dgc-in-grove-city-oh-6/20%Monthly2018-08-01 21:54
http://letsdiscgolf.com/2018/08/01/224252/bailey-dgc-in-bailey-co-34/20%Monthly2018-08-01 21:52
http://letsdiscgolf.com/2018/08/01/224236/dr-disc-golf-lynx-in-orrington-me/20%Monthly2018-08-01 20:28
http://letsdiscgolf.com/2018/08/01/224242/812018-bethel-university-dgc-in-arden-hills-mn-hole-info-updated/20%Monthly2018-08-15 18:26
http://letsdiscgolf.com/2018/08/01/224238/buxton-woods-dgc-in-buxton-or-16/20%Monthly2018-08-01 20:10
http://letsdiscgolf.com/2018/08/01/224206/griggs-reservoir-park-in-columbus-oh-13/20%Monthly2018-08-01 19:45
http://letsdiscgolf.com/2018/08/01/224208/waller-mill-park-in-williamsburg-va-14/20%Monthly2018-08-01 19:37
http://letsdiscgolf.com/2018/08/01/224199/ghost-town-in-russell-gulch-co-19/20%Monthly2018-08-01 18:42
http://letsdiscgolf.com/2018/08/01/224201/worthington-flats-in-worthington-oh-5/20%Monthly2018-08-01 18:32
http://letsdiscgolf.com/2018/08/01/224203/wheatland-dgc-in-gervais-or-9/20%Monthly2018-08-01 18:22
http://letsdiscgolf.com/2018/08/01/224195/brent-hambrick-memorial-dgc-in-columbus-oh-17/20%Monthly2018-08-01 17:46
http://letsdiscgolf.com/2018/08/01/224197/phillips-park-in-pittsburgh-pa-8/20%Monthly2018-08-01 17:37
http://letsdiscgolf.com/2018/08/01/224189/812018-university-of-west-georgia-in-carrollton-ga-new-file-uploaded/20%Monthly2018-08-01 14:01
http://letsdiscgolf.com/2018/08/01/224187/university-of-west-georgia-in-carrollton-ga-3/20%Monthly2018-08-01 13:23
http://letsdiscgolf.com/2018/08/01/224183/812018-gaudet-luce-in-droitwich-united-kingdom-new-photos-uploaded/20%Monthly2018-09-05 08:36
http://letsdiscgolf.com/2018/08/01/224185/812018-blackhawk-dgc-in-seeley-lake-mt-new-photos-uploaded/20%Monthly2018-08-09 16:54
http://letsdiscgolf.com/2018/08/01/224179/arrowstone-park-in-deer-lodge-mt/20%Monthly2018-08-01 06:18
http://letsdiscgolf.com/2018/08/01/224175/812018-arrowstone-park-in-deer-lodge-mt-new-photos-uploaded/20%Monthly2018-08-01 05:46
http://letsdiscgolf.com/2018/08/01/224169/osage-grove-dgc-in-goshen-oh-20/20%Monthly2018-08-01 04:56
http://letsdiscgolf.com/2018/08/01/224171/7312018-parc-de-la-rivire-aux-pins-in-boucherville-qc-hole-info-updated/20%Monthly2018-08-02 06:25
http://letsdiscgolf.com/2018/08/01/224246/pdga-global-board-of-directors-and-stateprovincial-coordinators-announced/20%Monthly2018-08-01 04:00
http://letsdiscgolf.com/2018/08/01/224167/7312018-hippo-ridge-in-stewart-oh-new-file-uploaded/20%Monthly2019-10-01 13:27
http://letsdiscgolf.com/2018/08/01/224161/worthing-dgc-in-worthing-sd-4/20%Monthly2018-08-01 02:12
http://letsdiscgolf.com/2018/08/01/224163/water-works-park-in-kansas-city-mo-28/20%Monthly2018-08-01 01:20
http://letsdiscgolf.com/2018/08/01/224155/midtown-golf-complex-in-paducah-ky-2/20%Monthly2018-08-01 00:44